Location: Theodore Roosevelt National Park
(46.9990°N, 103.4631°W)
Time: 07:26:18
(UTC-07:00)

Iridium 37 - Visible Passes

Search period start: 19 December 2014 00:00
Search period end: 29 December 2014 00:00
Orbit: 776 x 779 km, 86.4° (Epoch: 18 December)

Date Brightness Start Highest point End Pass type
(mag) Time Alt. Az. Time Alt. Az. Time Alt. Az.
19 Dec 5.5 16:38:23 10° S 16:43:34 76° E 16:48:47 10° N visible
19 Dec 8.3 18:21:52 10° WSW 18:24:56 16° WNW 18:28:01 10° NNW visible
20 Dec 7.7 17:46:43 10° SW 17:51:03 26° WNW 17:55:24 10° NNW visible
21 Dec 6.7 17:12:20 10° SSW 17:17:18 44° W 17:22:18 10° N visible
22 Dec 5.8 16:38:28 10° S 16:43:40 78° W 16:48:55 10° N visible
22 Dec 8.5 18:23:53 10° W 18:25:20 11° WNW 18:26:48 10° NW visible
23 Dec 8.1 17:47:41 10° WSW 17:51:22 19° WNW 17:55:03 10° NNW visible
24 Dec 7.3 17:12:53 10° SW 17:17:31 32° WNW 17:22:11 10° NNW visible
25 Dec 6.3 16:38:43 10° SSW 16:43:49 55° W 16:48:57 10° N visible
26 Dec 8.3 17:49:04 10° W 17:51:43 14° WNW 17:54:23 10° NW visible
27 Dec 7.8 17:13:40 10° SW 17:17:47 24° WNW 17:21:57 10° NNW visible
28 Dec 7.0 16:39:09 10° SSW 16:44:00 40° W 16:48:54 10° N visible
